Regional Weather Roundup
Issued by NWS Upton, NY

Current Version | Previous Version | Graphics & Text | Print | Product List | Glossary Off
Versions: 1 2 3 4 5 6 7 8 9 10 11 12 13 14 15 16 17 18 19 20 21 22 23 24 25 26 27 28 29 30 31 32 33 34 35 36 37 38 39 40 41 42 43 44 45 46 47 48 49 50

000
ASUS41 KOKX 250204
RWROKX

REGIONAL WEATHER ROUNDUP
NATIONAL WEATHER SERVICE NEW YORK NY
1000 PM EDT SAT SEP 24 2016

NOTE: "FAIR" INDICATES FEW OR NO CLOUDS BELOW 12,000 FEET WITH NO
SIGNIFICANT WEATHER AND/OR OBSTRUCTIONS TO VISIBILITY.

NYZ071-072-176-178-NJZ106-104-250300-
NEW YORK CITY METRO AREA

CITY           SKY/WX    TMP DP  RH WIND       PRES   REMARKS
Central Park   CLEAR     64  43  46 CALM      30.17R
LaGuardia APRT PTCLDY    66  45  46 N7        30.14R
Kennedy INTL   PTCLDY    60  45  57 NE3       30.14R
Newark/Liberty PTCLDY    65  45  48 N9        30.14R
Bronx Bot Gard   N/A     59  43  55 N6        30.15R
Wall St Helipt CLEAR     68  48  49 NE7       30.14R
Teterboro      CLEAR     61  44  53 N5        30.14R
$$

NYZ177-179-078>081-250300-
LONG ISLAND NEW YORK

CITY           SKY/WX    TMP DP  RH WIND       PRES   REMARKS
Farmingdale    CLEAR     59  46  62 N5        30.13S
MacArthur/ISP  PTCLDY    54  47  77 N3        30.13R
Shirley        CLEAR     51  48  89 CALM      30.13R
Riverhead      NOT AVBL
Westhampton    CLEAR     48  44  86 CALM      30.14S
Southampton      N/A     57  46  67 CALM      30.09S
Bridgehampton    N/A     54  46  76 CALM      29.98R
East Hampton   FAIR      50  45  84 CALM      30.12R
Montauk          N/A     63  41  44 N7        30.13S
$$

NYZ052-065-067-250300-
HUDSON VALLEY

CITY           SKY/WX    TMP DP  RH WIND       PRES   REMARKS
White Plains   CLEAR     55  44  66 N5        30.14R
Newburgh       CLEAR     55  45  67 CALM      30.17R
Montgomery     CLEAR     56  43  61 NW6       30.16R
Poughkeepsie   CLEAR     48  43  82 CALM      30.15R
Albany         CLEAR     52  38  58 CALM      30.17R
$$

NJZ001-105-106-008-010-013-015-019>022-104-250300-
NEW JERSEY

CITY           SKY/WX    TMP DP  RH WIND       PRES   REMARKS
Newark/Liberty PTCLDY    65  45  48 N9        30.14R
Teterboro      CLEAR     61  44  53 N5        30.14R
Caldwell       CLEAR     56  49  77 CALM      30.16R
Morristown     PTCLDY    52  48  87 CALM      30.16R
Somerville     CLEAR     53  48  83 NW3       30.14R
Linden         NOT AVBL
Sussex         CLEAR     50  45  83 CALM      30.18R
Abdover          N/A     49  47  93 CALM      30.18R
Trenton        CLEAR     59  45  59 N5        30.14R
Millville      CLEAR     55  55 100 CALM      30.15R
Atlantic City  CLEAR     57  53  86 CALM      30.14R
Wrightstown    PTCLDY    54  52  92 NW3       30.13R
Toms River     CLEAR     52  50  93 CALM      30.15R
Belmar         PTCLDY    55  53  93 W6        30.15R
$$

PAZ047>061-062-071-250300-
EASTERN PENNSYLVANIA

CITY           SKY/WX    TMP DP  RH WIND       PRES   REMARKS
Philadelphia   CLEAR     64  50  60 N3        30.15R
Allentown      CLEAR     54  44  69 N6        30.17R
Scranton       CLEAR     51  46  83 E3        30.20R
$$

CTZ002-004>006-009-010-012-RIZ004-006-007-MAZ004-011-015-250300-
SOUTHERN NEW ENGLAND
 IN CT

CITY           SKY/WX    TMP DP  RH WIND       PRES   REMARKS
Bradley INTL   PTCLDY    50  44  80 W3        30.14R
Hartford       CLEAR     53  47  79 CALM      30.13R
Danbury        CLEAR     48  44  86 SW3       30.16R
Wtrbury/Oxford   N/A     50  39  66 N6        30.15S
Bridgeport     CLEAR     60  43  53 NW5       30.14R
Meriden        PTCLDY    51  44  77 CALM      30.14R
New Haven      CLEAR     55  42  61 CALM      30.14R
Chester        FAIR      52  45  76 CALM      30.13S
Groton         CLEAR     53  48  83 N5        30.12R
Wilimantic     CLEAR     51  47  86 CALM      30.14R

 IN RI

CITY           SKY/WX    TMP DP  RH WIND       PRES   REMARKS
Providence     CLEAR     57  40  52 NW7       30.12S
Block Island   CLEAR     60  45  57 N9        30.12
Westerly       CLEAR     51  45  79 CALM      30.13R
 IN MA

CITY           SKY/WX    TMP DP  RH WIND       PRES   REMARKS
Boston         CLEAR     59  37  44 W9        30.10S
Worcester      CLEAR     48  37  65 NW7       30.12S
Westfield      CLEAR     47  44  90 CALM      30.14R
Provincetown   CLEAR     60  41  49 NW14G21   30.08S
Nantucket      CLOUDY    52  43  71 SW3       30.08S
$$

ANZ330-335-338-340-345-350-353-355-250300-
COASTAL MARINE OBSERVATIONS


STATION/POSITION TIME  SKY/WX   TEMP    WIND        PRES    VSBY  WAVE
                                AIR SEA DIR/SP/G                  HT/PER
                 (UTC)          (F)     (DEG/KT/KT) (MB)    (MI)  (FT/S)
NY HARB ENTRANCE 0050            68 72   30/ 10/ 12 1019.5          4/10
20S FIRE ISLAND  0050            66 71   20/  6/  8 1019.5          4/11
GREAT SOUTH BAY  0115            65 73  360/  6/  8   N/A
23 SSW MONTAUK P 0050            65 68  350/ 10/ 14 1019.8          4/ 9
15 E BARNEGAT LI 0130               71                N/A           5/11
HUDSON CANYON    0050            64 69              1019.6          6/11
KINGS POINT      0130               74              1020.2
EXECUTION ROCKS  0145            66      10/ 12/ 14   N/A
CENTRAL LI SOUND 0145            65 73   10/ 12/ 14   N/A           2/ 2
EASTERN LI SOUND NOT AVBL
ROBBINS REEF     0130                   340/  6/  8 1020.6
$$


>>>>>>>>>>>>>>>>>>>>>>>>>>>> KEY <<<<<<<<<<<<<<<<<<<<<<<<<<<
>                                                          <
>     SKY/WX - Sky Condition/Present Weather               <
>     TMP    - Temperature in Fahrenheit                   <
>     DP     - Dew Point in Fahrenheit                     <
>     RH     - Relative Humidity in Percent                <
>     WIND   - Direction (from) and Speed in MPH           <
>     PRES   - Mean Sea Level Pressure (inches of Hg)      <
>     WCI    - Wind Chill Index                            <
>     VSB    - VISIBILITY IN MILES                         <
>     HX     - HEAT INDEX                                  <
>     TC     - TEMPERATURE IN CELSIUS                      <
>     VRB    - VARIABLE WIND DIRECTION                     <
>                                                          <
>>>>>>>>>>>>>>>>>>>>>>>>>>>> KEY <<<<<<<<<<<<<<<<<<<<<<<<<<<




USA.gov is the U.S. government's official web portal to all federal, state and local government web resources and services.